This demonstration page uses our WeatherBlox Daily Observations layout. Learn more.

Left ArrowRight Arrow

38.89511, -77.03637

Hourly Observations for April 20, 2021

Temp ( °F °C ) Dew Point ( °F °C ) Humidity (%) Winds ( mph kmh ) Pressure ( in mb ) Visibility ( mi km ) Precip ( " mm )
12:52 am 00:52 Clear 51 10.6 46 7.8 83 83 SSW 7 11 29.94 1014 10 16 0.00 0.00
1:52 am 01:52 Clear 50 10 45 7.2 83 83 SSW 6 9 29.95 1014 10 16 0.00 0.00
2:52 am 02:52 Partly Cloudy 50 10 45 7.2 83 83 SSW 7 11 29.95 1014 10 16 0.00 0.00
3:52 am 03:52 Partly Cloudy 50 10 46 7.8 86 86 SSW 7 11 29.95 1014 10 16 0.00 0.00
4:52 am 04:52 Clear 49 9.4 45 7.2 86 86 SSW 6 9 29.95 1014 10 16 0.00 0.00
5:52 am 05:52 Mostly Clear 47 8.3 44 6.7 90 90 SW 6 9 29.96 1015 10 16 0.00 0.00
6:52 am 06:52 Mostly Sunny 47 8.3 44 6.7 90 90 SW 6 9 29.98 1015 10 16 0.00 0.00
7:52 am 07:52 Mostly Sunny 52 11.1 48 8.9 86 86 SSW 8 13 30.00 1016 10 16 0.00 0.00
8:52 am 08:52 Partly Cloudy 55 12.8 49 9.4 80 80 S 8 13 30.00 1016 10 16 0.00 0.00
9:52 am 09:52 Partly Cloudy 59 15 50 10 72 72 S 10 17 30.00 1016 10 16 0.00 0.00
10:52 am 10:52 Partly Cloudy 65 18.3 49 9.4 56 56 S 12 19 29.99 1016 10 16 0.00 0.00
11:52 am 11:52 Mostly Sunny 69 20.6 46 7.8 44 44 S 15 24 29.98 1015 10 16 0.00 0.00
12:52 pm 12:52 Mostly Sunny 73 22.8 43 6.1 34 34 S 13 20 29.96 1015 10 16 0.00 0.00
1:52 pm 13:52 Mostly Sunny 72 22.2 44 6.7 37 37 S 15 24 29.93 1014 10 16 0.00 0.00
2:52 pm 14:52 Mostly Sunny 74 23.3 40 4.4 29 29 S 13 20 29.90 1013 10 16 0.00 0.00
3:52 pm 15:52 Mostly Sunny 75 23.9 38 3.3 26 26 SSW 13 20 29.88 1012 10 16 0.00 0.00
4:52 pm 16:52 Mostly Sunny 74 23.3 43 6.1 33 33 S 16 26 29.86 1011 10 16 0.00 0.00
5:52 pm 17:52 Mostly Sunny 73 22.8 42 5.6 33 33 S 14 22 29.85 1011 10 16 0.00 0.00
6:52 pm 18:52 Mostly Sunny 73 22.8 39 3.9 29 29 S 16 26 29.85 1011 10 16 0.00 0.00
7:52 pm 19:52 Mostly Clear 67 19.4 45 7.2 45 45 S 13 20 29.85 1011 10 16 0.00 0.00
8:52 pm 20:52 Clear 67 19.4 45 7.2 45 45 S 13 20 29.85 1011 10 16 0.00 0.00
9:52 pm 21:52 Clear 65 18.3 46 7.8 51 51 S 14 22 29.85 1011 10 16 0.00 0.00
10:52 pm 22:52 Clear 65 18.3 45 7.2 49 49 S 15 24 29.85 1011 10 16 0.00 0.00
11:27 pm 23:27 Mostly Clear 65 18.3 42 5.6 43 43 S 14 22 29.85 1011 10 16 0.00 0.00
11:52 pm 23:52 Mostly Clear 64 17.8 42 5.6 45 45 S 14 22 29.84 1010 10 16 0.00 0.00

Powered by AerisWeather